Silver City, NM

3:51 AM MDT on July 27, 2017 (GMT -0600)
Grant County

Weather History for KSVC - June, 2013

Change the Weather History Date:

Friday, June 21, 2013

  Actual Average (KDMN) Record (KDMN)
Temperature  
Mean Temperature 73 °F -  
Max Temperature 93 °F 96 °F 105 °F (2015)
Min Temperature 53 °F 58 °F 48 °F (1991)
Cooling Degree Days 8    
Growing Degree Days 23 (Base 50)    
Moisture  
Dew Point 14 °F    
Average Humidity 10    
Maximum Humidity 15    
Minimum Humidity 5    
Precipitation  
Precipitation 0.00 in - - ()
Sea Level Pressure  
Sea Level Pressure 30.11 in    
Wind  
Wind Speed 10 mph (WNW)    
Max Wind Speed 24 mph    
Max Gust Speed 39 mph    
Visibility 10 miles    
Events      
Averages and records for this station are not official NWS values.
T = Trace of Precipitation, MM = Missing Value Source: NWS Daily Summary

Daily Weather History Graph

Daily Weather History Graph

Search for Another Location

Airport or City:

Trip Planner

Search our weather history database for the weather conditions in past years. The results will help you decide how hot, cold, wet, or windy it might be!

Date:

Astronomy

Jun. 21, 2013 Rise Set
Actual Time 6:05 AM MDT 8:23 PM MDT
Civil Twilight 5:36 AM MDT 8:52 PM MDT
Nautical Twilight 5:01 AM MDT 9:27 PM MDT
Astronomical Twilight 4:23 AM MDT 10:05 PM MDT
Moon 6:41 PM MDT (6/21) 4:19 AM MDT (6/21)
Length of Visible Light 15h 15m
Length of Day
14h 18m
Waxing Gibbous, 95% of the Moon is Illuminated
Jun 21
Waxing Gibbous
Jun 23
Full
Jun 29
Last Quarter
Jul 8
New
Jul 15
First Quarter

Hourly Weather History & Observations

Time (MDT) Temp. Dew Point Humidity Pressure Visibility Wind Dir Wind Speed Gust Speed Precip Events Conditions
12:15 AM 64.4 °F 1.4 °F 8% 30.10 in 10.0 mi NNW 12.7 mph - N/A   Clear
12:35 AM 64.4 °F 1.4 °F 8% 30.10 in 10.0 mi North 11.5 mph - N/A   Clear
12:55 AM 66.2 °F 1.4 °F 8% 30.10 in 10.0 mi NNW 11.5 mph - N/A   Clear
1:15 AM 62.6 °F 1.4 °F 9% 30.10 in 10.0 mi North 9.2 mph - N/A   Clear
1:35 AM 64.4 °F 1.4 °F 8% 30.11 in 10.0 mi NNW 8.1 mph - N/A   Clear
1:55 AM 64.4 °F 3.2 °F 9% 30.11 in 10.0 mi NNW 10.4 mph - N/A   Clear
2:15 AM 62.6 °F 3.2 °F 9% 30.11 in 10.0 mi North 9.2 mph - N/A   Clear
2:35 AM 62.6 °F 3.2 °F 9% 30.10 in 10.0 mi North 9.2 mph - N/A   Clear
2:55 AM 62.6 °F 3.2 °F 9% 30.11 in 10.0 mi North - - N/A   Clear
3:15 AM 60.8 °F 3.2 °F 10% 30.11 in 10.0 mi NNW 11.5 mph - N/A   Clear
3:35 AM 62.6 °F 3.2 °F 9% 30.11 in 10.0 mi NNE 6.9 mph - N/A   Clear
3:55 AM 60.8 °F 3.2 °F 10% 30.11 in 10.0 mi NNE 3.5 mph - N/A   Clear
4:15 AM 57.2 °F 5.0 °F 12% 30.11 in 10.0 mi North 4.6 mph - N/A   Clear
4:35 AM 55.4 °F 3.2 °F 12% 30.11 in 10.0 mi Calm Calm - N/A   Clear
4:55 AM 57.2 °F 3.2 °F 11% 30.11 in 10.0 mi Calm Calm - N/A   Clear
5:15 AM 55.4 °F 3.2 °F 12% 30.12 in 10.0 mi WNW 3.5 mph - N/A   Clear
5:35 AM 57.2 °F 3.2 °F 11% 30.13 in 10.0 mi Calm Calm - N/A   Clear
5:55 AM 53.6 °F 1.4 °F 12% 30.14 in 10.0 mi Calm Calm - N/A   Clear
6:15 AM 53.6 °F 3.2 °F 13% 30.14 in 10.0 mi North 4.6 mph - N/A   Clear
6:35 AM 55.4 °F 5.0 °F 13% 30.14 in 10.0 mi North 6.9 mph - N/A   Clear
6:55 AM 59.0 °F 6.8 °F 13% 30.15 in 10.0 mi North 6.9 mph - N/A   Clear
7:15 AM 64.4 °F 8.6 °F 11% 30.15 in 10.0 mi NNW 4.6 mph - N/A   Clear
7:35 AM 68.0 °F 10.4 °F 11% 30.16 in 10.0 mi North 6.9 mph - N/A   Clear
7:55 AM 71.6 °F 14.0 °F 11% 30.16 in 10.0 mi NNW 3.5 mph - N/A   Clear
8:15 AM 73.4 °F 23.0 °F 15% 30.16 in 10.0 mi Calm Calm - N/A   Clear
8:35 AM 75.2 °F 23.0 °F 14% 30.17 in 10.0 mi South 3.5 mph - N/A   Clear
8:55 AM 75.2 °F 23.0 °F 14% 30.17 in 10.0 mi Calm Calm - N/A   Clear
9:15 AM 77.0 °F 19.4 °F 12% 30.17 in 10.0 mi Calm Calm - N/A   Clear
9:35 AM 80.6 °F 17.6 °F 10% 30.17 in 10.0 mi Calm Calm - N/A   Clear
9:55 AM 82.4 °F 17.6 °F 9% 30.17 in 10.0 mi Calm Calm - N/A   Clear
10:15 AM 82.4 °F 19.4 °F 10% 30.17 in 10.0 mi South 5.8 mph - N/A   Clear
10:35 AM 84.2 °F 26.6 °F 12% 30.17 in 10.0 mi SSW 8.1 mph - N/A   Clear
10:55 AM 86.0 °F 32.0 °F 14% 30.16 in 10.0 mi SW 10.4 mph 18.4 mph N/A   Clear
11:15 AM 86.0 °F 33.8 °F 15% 30.16 in 10.0 mi SW 8.1 mph 23.0 mph N/A   Clear
11:35 AM 86.0 °F 32.0 °F 14% 30.16 in 10.0 mi SSW 12.7 mph 26.5 mph N/A   Clear
11:55 AM 89.6 °F 28.4 °F 11% 30.15 in 10.0 mi WSW 15.0 mph 24.2 mph N/A   Clear
12:15 PM 89.6 °F 28.4 °F 11% 30.15 in 10.0 mi WSW 12.7 mph 26.5 mph N/A   Clear
12:35 PM 89.6 °F 26.6 °F 10% 30.14 in 10.0 mi SW 19.6 mph 26.5 mph N/A   Clear
12:55 PM 89.6 °F 26.6 °F 10% 30.14 in 10.0 mi West 15.0 mph 33.4 mph N/A   Clear
1:15 PM 89.6 °F 26.6 °F 10% 30.13 in 10.0 mi WSW 13.8 mph 27.6 mph N/A   Clear
1:35 PM 91.4 °F 28.4 °F 10% 30.12 in 10.0 mi SW 15.0 mph 24.2 mph N/A   Clear
1:55 PM 91.4 °F 26.6 °F 10% 30.11 in 10.0 mi SW 9.2 mph 34.5 mph N/A   Clear
2:15 PM 91.4 °F 26.6 °F 10% 30.10 in 10.0 mi West 19.6 mph 39.1 mph N/A   Clear
2:35 PM 91.4 °F 26.6 °F 10% 30.10 in 10.0 mi West 16.1 mph 28.8 mph N/A   Clear
2:55 PM 91.4 °F 24.8 °F 9% 30.09 in 10.0 mi WSW 20.7 mph 31.1 mph N/A   Clear
3:15 PM 91.4 °F 23.0 °F 8% 30.08 in 10.0 mi WSW 23.0 mph 29.9 mph N/A   Clear
3:35 PM 91.4 °F 23.0 °F 8% 30.08 in 10.0 mi West 13.8 mph 27.6 mph N/A   Clear
3:55 PM 93.2 °F 24.8 °F 9% 30.07 in 10.0 mi West 18.4 mph 28.8 mph N/A   Clear
4:15 PM 93.2 °F 23.0 °F 8% 30.06 in 10.0 mi WSW 21.9 mph 32.2 mph N/A   Clear
4:35 PM 91.4 °F 21.2 °F 8% 30.06 in 10.0 mi WSW 13.8 mph 25.3 mph N/A   Clear
4:55 PM 91.4 °F 19.4 °F 7% 30.06 in 10.0 mi WSW 16.1 mph 26.5 mph N/A   Clear
5:15 PM 91.4 °F 17.6 °F 7% 30.05 in 10.0 mi West 19.6 mph 27.6 mph N/A   Clear
5:35 PM 91.4 °F 17.6 °F 7% 30.04 in 10.0 mi West 21.9 mph 29.9 mph N/A   Clear
5:55 PM 91.4 °F 15.8 °F 6% 30.04 in 10.0 mi WNW 23.0 mph 32.2 mph N/A   Clear
6:15 PM 89.6 °F 14.0 °F 6% 30.04 in 10.0 mi West 20.7 mph 29.9 mph N/A   Clear
6:35 PM 89.6 °F 14.0 °F 6% 30.04 in 10.0 mi West 19.6 mph 26.5 mph N/A   Clear
6:55 PM 89.6 °F 12.2 °F 6% 30.04 in 10.0 mi West 15.0 mph 24.2 mph N/A   Clear
7:15 PM 87.8 °F 10.4 °F 6% 30.05 in 10.0 mi WNW 24.2 mph 29.9 mph N/A   Clear
7:35 PM 86.0 °F 10.4 °F 6% 30.05 in 10.0 mi West 18.4 mph 24.2 mph N/A   Clear
7:55 PM 86.0 °F 8.6 °F 5% 30.05 in 9.0 mi West 19.6 mph 28.8 mph N/A   Clear
8:15 PM 86.0 °F 8.6 °F 5% 30.05 in 10.0 mi West 18.4 mph - N/A   Clear
8:35 PM 84.2 °F 8.6 °F 6% 30.06 in 10.0 mi West 13.8 mph - N/A   Clear
8:55 PM 82.4 °F 8.6 °F 6% 30.07 in 10.0 mi WNW 15.0 mph 21.9 mph N/A   Clear
9:15 PM 82.4 °F 8.6 °F 6% 30.07 in 10.0 mi WNW 11.5 mph - N/A   Clear
9:35 PM 78.8 °F 8.6 °F 7% 30.08 in 10.0 mi NW 8.1 mph - N/A   Clear
9:55 PM 75.2 °F 8.6 °F 8% 30.08 in 10.0 mi NW 10.4 mph - N/A   Clear
10:15 PM 73.4 °F 8.6 °F 8% 30.08 in 10.0 mi NW 10.4 mph - N/A   Clear
10:35 PM 71.6 °F 8.6 °F 9% 30.08 in 10.0 mi NNW 11.5 mph - N/A   Clear
10:55 PM 71.6 °F 8.6 °F 9% 30.08 in 10.0 mi NNW 12.7 mph - N/A   Clear
11:15 PM 69.8 °F 8.6 °F 9% 30.08 in 10.0 mi NW 12.7 mph - N/A   Clear
11:35 PM 68.0 °F 8.6 °F 10% 30.09 in 10.0 mi NW 11.5 mph - N/A   Clear
11:55 PM 68.0 °F 10.4 °F 11% 30.09 in 10.0 mi NW 12.7 mph - N/A   Clear